Location: ??????
(55.8274°N, 37.9338°E)
Time: 03:34:49
(UTC+00:00)

Okean 1 - Visible Passes

Search period start: 25 July 2024 00:00
Search period end: 04 August 2024 00:00
Orbit: 502 x 529 km, 82.5° (Epoch: 24 July)

Date Brightness Start Highest point End Pass type
(mag) Time Alt. Az. Time Alt. Az. Time Alt. Az.
25 Jul 5.9 19:45:56 10° NE 19:46:31 10° NE 19:47:06 10° ENE visible
25 Jul 3.4 21:19:18 10° N 21:23:04 64° ENE 21:25:06 25° SSE visible
25 Jul 5.2 22:56:01 10° NW 22:58:20 16° W 23:00:06 12° WSW visible
26 Jul 3.6 21:04:11 10° N 21:07:54 54° ENE 21:09:57 24° SE visible
26 Jul 5.1 22:40:38 10° NW 22:43:16 18° W 22:44:56 14° WSW visible
27 Jul 3.8 20:49:03 10° N 20:52:44 46° ENE 20:54:47 23° SE visible
27 Jul 4.9 22:25:18 10° NW 22:28:11 21° W 22:29:46 16° WSW visible
28 Jul 4.1 20:33:56 10° N 20:37:31 39° ENE 20:39:37 21° SE visible
28 Jul 4.7 22:09:58 10° NW 22:13:04 24° W 22:14:36 19° SW visible
29 Jul 4.3 20:18:47 10° N 20:22:17 34° ENE 20:24:26 19° ESE visible
29 Jul 4.5 21:54:39 10° NNW 21:57:56 28° W 21:59:25 21° SW visible
30 Jul 4.5 20:03:38 10° N 20:07:01 29° ENE 20:09:15 17° ESE visible
30 Jul 4.3 21:39:20 10° NNW 21:42:45 33° W 21:44:14 24° SW visible
31 Jul 4.7 19:48:29 10° N 19:51:43 26° ENE 19:54:03 15° ESE visible
31 Jul 4.1 21:24:00 10° NNW 21:27:33 38° W 21:29:02 27° SW visible
01 Aug 4.9 19:33:21 10° N 19:36:24 22° ENE 19:38:50 13° ESE visible
01 Aug 3.8 21:08:41 10° NNW 21:12:20 45° W 21:13:49 29° SSW visible
02 Aug 5.1 19:18:12 10° NNE 19:21:03 20° ENE 19:23:37 11° ESE visible
02 Aug 3.6 20:53:21 10° NNW 20:57:05 54° W 20:58:36 31° SSW visible
03 Aug 5.2 19:03:03 10° NNE 19:05:40 17° ENE 19:08:17 10° ESE visible
03 Aug 3.3 20:38:01 10° NNW 20:41:48 65° W 20:43:23 32° S visible
